AVUM R/B, 53109

Orbit data source: Space-Track

AVUM R/B, 53109 is space debris originally from a launch on Wed, 13 Jul 2022 UTC launched from the French Guiana (FRGUI). Debris objects in space refer to the collection of defunct objects orbiting the Earth. Examples of debris include non-operational satellites, rocket bodies, and fragments generated from explosions, collisions, or faulty payload assembly.

Loading next visibility...
Identifier
53109, 2022-080E
Orbit
Active
Country
Flag of FRFR
Related business
Manufacturer
Avio
Mission
Operational spacecraft
Bus & Motor
AVUM, Unknown motor
Mass
Wet unknown, 660 kg dry
Launch date (UTC)
2022-07-13 (3 years ago)
Launch vehicle
Unknown
Launch site
French Guiana (FRGUI)
Object type
Payload
Rocket body
Debris
Shape & HBR
Cyl, 1.0 m
Radar Cross Section
2.198 m², Large (>1 m²)

Expand to show TLE details & history
Last TLE update: 1 week ago

TLE from 1 week ago
0 AVUM R/B
1 53109U 22080E   25300.19655152 -.00000003  00000-0  00000-0 0  9998
2 53109  70.1635  19.2627 0008752 338.1294  21.8991  6.42583349 77098
Epoch: 2025-10-27T04:43Z
TLE epoch observation values (Epoch: 2025-10-27T04:43:02.051Z)
Latitude
-0.00005°
Longitude
-87.29773°
Altitude
5,834.574 km
Speed
5.716 km/s
True Right ascension
01h 17m 03s
True Declination
0° 00' 00"
Sunlit
Object was in full shadow at epoch
Visualization orbit readout
Latitude
Unknown
Longitude
Unknown
Altitude
Unknown
Speed
Unknown
Apparent Right ascension
Unknown
Apparent Declination
Unknown
Sunlit
N/A
Visualization observer readout
Local Sidereal Time
23:50:18
Azimuth
Unknown
Elevation
Unknown
Doppler factor
Unknown
Orbital elements
Apogee altitude
5,852.633 km
Perigee altitude
5,831.243 km
Semi-major axis
12,220.075 km
Eccentricity
0.00088
Inclination
70.1635°
RAAN
19.2627°
Arg. of periapsis
338.1294°
True anomaly
21.93654°
Mean anomaly
21.8991°
Eccentric anomaly
21.91782°
Mean motion
1.60669 °/min
Orbital period
224.06 mins
BSTAR
0
Loading maneuver chart data...
Computing Atmospheric mass density...
Loading historical data...
Loading historical data...
Loading historical data...
Loading historical data...
Loading historical data...
Loading historical data...
Loading historical data...

Documentation

Showing up to 5 results
|